Location: Albany
(35.0170°S, 117.8920°E)
Time: 01:39:46
(UTC+08:00)

Envisat - Visible Passes

Search period start: 26 November 2020 00:00
Search period end: 06 December 2020 00:00
Orbit: 764 x 766 km, 98.1° (Epoch: 25 November)

Date Brightness Start Highest point End Pass type
(mag) Time Alt. Az. Time Alt. Az. Time Alt. Az.
28 Nov 6.3 03:57:04 10° E 03:59:36 14° ESE 04:02:10 10° SE visible
01 Dec 6.7 03:47:16 10° ESE 03:48:23 11° ESE 03:49:29 10° SE visible
03 Dec 6.0 04:09:53 10° ENE 04:13:27 19° ESE 04:17:02 10° SSE visible
